Tracking 30995 objects as of 5-Jul-2025
HD Live streaming from Space Station
objects crossing your sky now

CHINASAT 19

Track CHINASAT 19 now!


NORAD ID: 54230
Int'l Code: 2022-148A
Perigee: 35,763.5 km
Apogee: 35,823.5 km
Inclination: 0.0 °
Period: 1,436.1 minutes
Semi major axis: 42164 km
RCS: Unknown
Launch date: November 5, 2022
Source: People's Republic of China (PRC)
Launch site: Xichang Space Center, China (XSC)
Your satellite tracking list
Your tracking list is empty




NASA's NSSDC Master Catalog

Two Line Element Set (TLE):
1 54230U 22148A   25185.88335353 -.00000065  00000-0  00000-0 0  9992
2 54230   0.0142 321.6029 0007110 265.6266 177.2670  1.00272723  9898
Source of the keplerian elements: AFSPC